Regional Weather Roundup
Issued by NWS Sioux Falls, SD

Home | Current Version | Previous Version | Text Only | Print | Product List | Glossary On
Versions: 1 2 3 4 5 6 7 8 9 10 11 12 13 14 15 16 17 18 19 20 21 22 23 24 25 26 27 28 29 30 31 32 33 34 35 36 37 38 39 40 41 42 43 44 45 46 47 48 49 50
000
ASUS43 KFSD 280210
RWRFSD

WEATHER ROUNDUP FOR SE SOUTH DAKOTA/SW MINNESOTA/NW IOWA
NATIONAL WEATHER SERVICE SIOUX FALLS SD
800 PM CST THU NOV 27 2014

NOTE: "FAIR" INDICATES FEW OR NO CLOUDS BELOW 12,000 FEET WITH NO
SIGNIFICANT WEATHER AND OR OBSTRUCTIONS TO VISIBILITY.


SDZ038>040-050-052>070-280300-
SOUTHEAST SOUTH DAKOTA

CITY           SKY/WX    TMP DP  RH WIND       PRES   REMARKS
CHAMBERLAIN    CLOUDY    25  16  69 SE16G24   29.95F WCI  12
HURON          CLOUDY    14   7  73 SE15G25   30.06F WCI  -1
MADISON        CLOUDY    10   7  85 SE15G22   30.11F WCI  -6
MITCHELL       CLOUDY    18  10  71 SE18G30   30.08F WCI   2
SIOUX FALLS    CLOUDY    13   6  74 SE14      30.17F WCI  -2
WINNER         CLOUDY    37  21  52 S20G30    29.91F
YANKTON        CLOUDY    19   9  63 SE14G20   30.16F WCI   6
$$

MNZ071-072-080-081-089-090-097-098-280300-
SOUTHWEST MINNESOTA

CITY           SKY/WX    TMP DP  RH WIND       PRES   REMARKS
FAIRMONT       CLOUDY     3  -2  78 SE12      30.27F WCI -13
JACKSON        CLOUDY     7   0  72 SE12      30.24F WCI  -9
LUVERNE        CLOUDY    14   5  67 SE13      30.21F WCI   0
MARSHALL       CLOUDY    10   1  67 SE13      30.21F WCI  -5
MONTEVIDEO     LGT SNOW   5  -2  72 S13       30.25F WCI -12
PIPESTONE      CLOUDY    10   3  72 S9        30.16F WCI  -2
REDWOOD FALLS  CLOUDY     4  -3  73 SE13      30.28F WCI -13
TRACY          CLOUDY    10   2  69 S10       30.22F WCI  -4
WINDOM         CLOUDY     5  -2  72 SE14      30.23F WCI -12
WORTHINGTON    CLOUDY     9   0  66 S9        30.22F WCI  -5
$$

IAZ001>003-012>014-020>022-031-032-NEZ013-014-SDZ071-280300-
NORTHWEST IOWA

CITY           SKY/WX    TMP DP  RH WIND       PRES   REMARKS
CHEROKEE       CLOUDY    13   8  80 SE12      30.26S WCI  -1
DENISON        MOCLDY    16   7  67 S15       30.25F WCI   1
ESTHERVILLE    CLOUDY     4  -2  76 SE14      30.27F WCI -14
LE MARS        MOCLDY    16   9  73 SE8       30.24F WCI   5
ORANGE CITY    MOCLDY    14   7  73 SE9       30.21F WCI   2
SHELDON        CLOUDY    10   3  72 SE13      30.22F WCI  -5
SIOUX CITY     MOCLDY    19   9  65 SE9       30.23F WCI   8
SPENCER        CLOUDY     8   1  73 SE12      30.27S WCI  -7
STORM LAKE     CLOUDY    10   3  72 S15       30.26R WCI  -6
$$

ABBREVIATIONS USED IN REMARKS
   TC - TEMPERATURE IN CELSIUS
  WCI - WIND CHILL INDEX
   HX - HEAT INDEX
  VSB - VISIBILITY



USA.gov is the U.S. government's official web portal to all federal, state and local government web resources and services.